EW9434 Weather Reports


time (UTC)temp
C
wind
direction
speed
KPH
gust
KPH
rain 1hr
cm
rain 24hr
cm
rain mn
cm
humidity
%
barometer
mb
20260508213208 20 154 6.4 16.1 0.00 0.00 0.00 43 1008.4
20260508213037 19 165 6.4 16.1 0.00 0.00 0.00 42 1008.5
20260508212647 20 189 6.4 14.5 0.00 0.00 0.00 42 1008.4
20260508212147 20 174 6.4 14.5 0.00 0.00 0.00 43 1008.5
20260508211647 20 224 4.8 14.5 0.00 0.00 0.00 42 1008.5
20260508211533 19 170 4.8 14.5 0.00 0.00 0.00 43 1008.7
20260508211142 20 132 4.8 14.5 0.00 0.00 0.00 42 1008.6
20260508210624 20 148 4.8 14.5 0.00 0.00 0.00 42 1008.5
20260508210036 19 122 1.6 14.5 0.00 0.00 0.00 42 1008.9
20260508205558 19 119 6.4 16.1 0.00 0.00 0.00 41 1008.9
20260508205037 19 160 8.0 19.3 0.00 0.00 0.00 41 1009.1
20260508204731 19 146 8.0 19.3 0.00 0.00 0.00 41 1009.2
20260508204552 19 162 8.0 19.3 0.00 0.00 0.00 40 1009.3
20260508203953 19 121 6.4 19.3 0.00 0.00 0.00 43 1009.3
20260508203429 19 198 6.4 17.7 0.00 0.00 0.00 42 1009.4
20260508203059 19 94 3.2 22.5 0.00 0.00 0.00 45 1009.5
20260508202931 20 238 8.0 16.1 0.00 0.00 0.00 42 1009.4
20260508202925 19 324 8.0 22.5 0.00 0.00 0.00 43 1009.4
20260508201905 20 170 8.0 22.5 0.00 0.00 0.00 42 1009.5
20260508201521 19 205 9.7 22.5 0.00 0.00 0.00 41 1009.6
20260508201405 20 174 6.4 22.5 0.00 0.00 0.00 44 1009.5
20260508200905 20 170 8.0 25.7 0.00 0.00 0.00 42 1009.6
20260508200338 20 228 8.0 25.7 0.00 0.00 0.00 41 1009.6
20260508200110 19 167 8.0 19.3 0.00 0.00 0.00 43 1009.7
20260508195813 19 193 8.0 19.3 0.00 0.00 0.00 42 1009.5
20260508195312 19 138 8.0 20.9 0.00 0.00 0.00 42 1009.7
20260508194748 19 207 6.4 17.7 0.00 0.00 0.00 41 1009.7
20260508194618 19 219 6.4 17.7 0.00 0.00 0.00 42 1009.8
20260508194220 20 141 8.0 17.7 0.00 0.00 0.00 40 1009.8
20260508193717 20 218 9.7 25.7 0.00 0.00 0.00 39 1009.7
20260508193211 20 205 9.7 25.7 0.00 0.00 0.00 39 1009.8
20260508193125 20 206 9.7 24.1 0.00 0.00 0.00 39 1009.9
20260508193041 19 207 9.7 25.7 0.00 0.00 0.00 41 1009.9
20260508192118 20 174 9.7 24.1 0.00 0.00 0.00 40 1009.9
20260508191615 20 217 11.3 27.4 0.00 0.00 0.00 38 1010.0
20260508191546 20 194 8.0 27.4 0.00 0.00 0.00 38 1010.1
20260508191110 20 195 11.3 27.4 0.00 0.00 0.00 37 1010.0
20260508190830 20 126 9.7 24.1 0.00 0.00 0.00 39 1010.0
20260508190106 20 139 9.7 17.7 0.00 0.00 0.00 40 1010.1
20260508190036 20 156 8.0 24.1 0.00 0.00 0.00 40 1010.2
20260508185801 20 145 11.3 25.7 0.00 0.00 0.00 40 1010.3
20260508185025 20 202 9.7 25.7 0.00 0.00 0.00 39 1010.5
20260508184550 20 159 12.9 25.7 0.00 0.00 0.00 41 1010.5
20260508184522 20 123 11.3 25.7 0.00 0.00 0.00 42 1010.4
20260508184025 20 89 9.7 24.1 0.00 0.00 0.00 42 1010.5
20260508183521 20 95 9.7 19.3 0.00 0.00 0.00 42 1010.6
20260508183035 19 158 8.0 32.2 0.00 0.00 0.00 42 1010.8
20260508182956 20 104 11.3 32.2 0.00 0.00 0.00 39 1010.7
20260508182429 20 203 8.0 29.0 0.00 0.00 0.00 41 1010.7
20260508181902 20 203 9.7 29.0 0.00 0.00 0.00 40 1010.8
20260508181525 20 84 4.8 29.0 0.00 0.00 0.00 41 1011.0
20260508181335 20 138 12.9 29.0 0.00 0.00 0.00 40 1011.0
20260508180810 20 157 11.3 29.0 0.00 0.00 0.00 43 1010.9
20260508180243 19 172 11.3 29.0 0.00 0.00 0.00 41 1011.1
20260508175715 19 175 9.7 29.0 0.00 0.00 0.00 39 1011.3
20260508175213 20 207 6.4 17.7 0.00 0.00 0.00 43 1011.3
20260508174907 19 107 8.0 24.1 0.00 0.00 0.00 48 1011.3
20260508174556 19 138 3.2 19.3 0.00 0.00 0.00 45 1011.4
20260508174143 19 136 11.3 24.1 0.00 0.00 0.00 43 1011.3
20260508173632 18 163 11.3 27.4 0.00 0.00 0.00 43 1011.5
20260508173136 18 132 8.0 27.4 0.00 0.00 0.00 44 1011.6
20260508173104 18 145 12.9 27.4 0.00 0.00 0.00 44 1011.8
20260508172827 18 105 8.0 22.5 0.00 0.00 0.00 46 1011.8
20260508172041 19 163 8.0 22.5 0.00 0.00 0.00 44 1011.8
20260508171555 18 159 4.8 14.5 0.00 0.00 0.00 46 1012.1
20260508171515 19 215 8.0 24.1 0.00 0.00 0.00 45 1011.9
20260508171011 19 118 11.3 24.1 0.00 0.00 0.00 45 1011.9
20260508170519 19 193 11.3 29.0 0.00 0.00 0.00 42 1011.9
20260508170021 19 172 8.0 29.0 0.00 0.00 0.00 45 1012.2
20260508165943 19 165 11.3 29.0 0.00 0.00 0.00 45 1012.2
20260508165417 19 88 12.9 32.2 0.00 0.00 0.00 44 1012.2
20260508164850 19 164 12.9 32.2 0.00 0.00 0.00 44 1012.4
20260508164504 19 207 9.7 30.6 0.00 0.00 0.00 45 1012.6
20260508164324 19 149 11.3 30.6 0.00 0.00 0.00 43 1012.6
20260508163758 19 74 11.3 30.6 0.00 0.00 0.00 45 1012.6
20260508163228 18 146 11.3 30.6 0.00 0.00 0.00 46 1012.6
20260508163027 18 103 11.3 25.7 0.00 0.00 0.00 46 1012.9
20260508162952 18 150 12.9 30.6 0.00 0.00 0.00 44 1012.7
20260508162158 18 127 12.9 30.6 0.00 0.00 0.00 45 1012.8
20260508161658 18 158 11.3 22.5 0.00 0.00 0.00 46 1012.7
20260508161542 18 172 9.7 19.3 0.00 0.00 0.00 47 1013.0
20260508161154 18 122 9.7 24.1 0.00 0.00 0.00 47 1012.8
20260508160650 18 99 8.0 24.1 0.00 0.00 0.00 48 1012.8
20260508160147 18 207 9.7 24.1 0.00 0.00 0.00 50 1012.8
20260508160129 18 149 8.0 22.5 0.00 0.00 0.00 48 1013.1
20260508155644 18 61 9.7 24.1 0.00 0.00 0.00 48 1013.1
20260508155142 18 134 11.3 32.2 0.00 0.00 0.00 46 1013.1
20260508154637 18 210 11.3 32.2 0.00 0.00 0.00 47 1013.2
20260508154522 17 167 12.9 30.6 0.00 0.00 0.00 47 1013.3
20260508154111 18 228 9.7 24.1 0.00 0.00 0.00 49 1013.2
20260508153546 17 130 11.3 24.1 0.00 0.00 0.00 48 1013.3
20260508153043 17 186 9.7 24.1 0.00 0.00 0.00 50 1013.5
20260508153017 17 226 9.7 24.1 0.00 0.00 0.00 50 1013.4
20260508152517 17 125 9.7 24.1 0.00 0.00 0.00 51 1013.4
20260508152429 17 162 9.7 27.4 0.00 0.00 0.00 49 1013.4
20260508151503 17 153 6.4 27.4 0.00 0.00 0.00 51 1013.7
20260508151445 17 147 9.7 27.4 0.00 0.00 0.00 51 1013.5
20260508150944 17 124 9.7 24.1 0.00 0.00 0.00 53 1013.5
20260508150438 16 159 9.7 24.1 0.00 0.00 0.00 50 1013.6
20260508150021 16 210 8.0 27.4 0.00 0.00 0.00 51 1013.9
20260508145937 16 165 11.3 27.4 0.00 0.00 0.00 50 1013.5
20260508145433 16 199 11.3 27.4 0.00 0.00 0.00 50 1013.5
20260508144932 16 134 12.9 25.7 0.00 0.00 0.00 50 1013.6
20260508144510 16 199 12.9 19.3 0.00 0.00 0.00 50 1013.9
20260508144428 16 143 9.7 22.5 0.00 0.00 0.00 51 1013.6
20260508143925 16 161 9.7 22.5 0.00 0.00 0.00 50 1013.6
20260508143423 16 184 9.7 22.5 0.00 0.00 0.00 50 1013.8
20260508143059 15 205 8.0 22.5 0.00 0.00 0.00 50 1014.0
20260508142920 15 123 11.3 25.7 0.00 0.00 0.00 49 1013.8
20260508142419 15 34 11.3 25.7 0.00 0.00 0.00 49 1013.8
20260508141917 15 151 11.3 25.7 0.00 0.00 0.00 49 1013.8
20260508141526 15 229 11.3 25.7 0.00 0.00 0.00 50 1014.2
20260508141350 15 205 9.7 25.7 0.00 0.00 0.00 52 1014.0
20260508140844 15 133 8.0 22.5 0.00 0.00 0.00 49 1013.9
20260508140344 15 105 6.4 17.7 0.00 0.00 0.00 49 1014.1
20260508140100 15 217 4.8 16.1 0.00 0.00 0.00 52 1014.4
20260508135839 15 155 6.4 17.7 0.00 0.00 0.00 51 1014.0
20260508135605 15 120 6.4 17.7 0.00 0.00 0.00 54 1014.0
20260508134812 15 222 6.4 14.5 0.00 0.00 0.00 52 1014.1
20260508134532 14 97 4.8 14.5 0.00 0.00 0.00 54 1014.4
20260508134246 14 126 6.4 19.3 0.00 0.00 0.00 54 1014.1
20260508133721 14 142 8.0 19.3 0.00 0.00 0.00 56 1014.1
20260508133216 14 148 6.4 20.9 0.00 0.00 0.00 54 1014.1
20260508133017 13 288 8.0 20.9 0.00 0.00 0.00 53 1014.5
20260508132714 13 286 6.4 20.9 0.00 0.00 0.00 55 1014.1
20260508132209 13 288 6.4 20.9 0.00 0.00 0.00 55 1014.1
20260508131709 13 285 4.8 16.1 0.00 0.00 0.00 58 1014.1
20260508131527 12 284 4.8 12.9 0.00 0.00 0.00 58 1014.5
20260508131139 12 284 3.2 11.3 0.00 0.00 0.00 61 1014.1
20260508130638 12 285 3.2 8.0 0.00 0.00 0.00 62 1014.1
20260508130136 12 285 3.2 6.4 0.00 0.00 0.00 62 1014.1
20260508130104 12 285 3.2 6.4 0.00 0.00 0.00 62 1014.4
20260508125609 12 289 4.8 12.9 0.00 0.00 0.00 62 1014.1
20260508125105 12 285 4.8 12.9 0.00 0.00 0.00 61 1014.0
20260508124603 11 99 4.8 16.1 0.00 0.00 0.00 62 1014.1
20260508124532 11 121 3.2 9.7 0.00 0.00 0.00 63 1014.4
20260508124038 11 147 4.8 16.1 0.00 0.00 0.00 63 1014.0
20260508123734 11 120 3.2 8.0 0.00 0.00 0.00 64 1014.0
20260508123025 11 120 3.2 8.0 0.00 0.00 0.00 63 1014.3
20260508122945 11 119 4.8 14.5 0.00 0.00 0.00 63 1013.9
20260508122418 11 285 4.8 14.5 0.00 0.00 0.00 64 1013.9
20260508121915 11 292 4.8 12.9 0.00 0.00 0.00 64 1014.0
20260508121610 10 286 4.8 12.9 0.00 0.00 0.00 64 1014.3
20260508121413 10 285 4.8 11.3 0.00 0.00 0.00 64 1013.9
20260508120848 10 285 4.8 11.3 0.00 0.00 0.00 65 1014.0
20260508120338 10 273 4.8 11.3 0.00 0.00 0.00 66 1014.0
20260508120056 10 286 3.2 11.3 0.00 0.00 0.00 65 1013.9
20260508120029 10 284 4.8 9.7 0.00 0.00 0.00 65 1014.3
20260508115535 10 286 3.2 8.0 0.00 0.00 0.00 65 1013.8
20260508114743 10 285 3.2 4.8 0.00 0.00 0.00 66 1013.9
20260508114540 10 285 1.6 4.8 0.00 0.00 0.00 66 1014.2
20260508114241 10 285 3.2 8.0 0.00 0.00 0.00 66 1013.8
20260508113715 10 285 3.2 8.0 0.00 0.00 0.00 66 1013.8
20260508113414 10 285 3.2 8.0 0.00 0.00 0.00 65 1013.7
20260508113009 10 285 1.6 4.8 0.00 0.00 0.00 65 1014.0
20260508112620 10 285 3.2 9.7 0.00 0.00 0.00 65 1013.7
20260508112120 10 285 3.2 9.7 0.00 0.00 0.00 65 1013.6
20260508111600 10 285 3.2 11.3 0.00 0.00 0.00 65 1013.6
20260508111534 10 285 3.2 9.7 0.00 0.00 0.00 65 1013.9
20260508111306 10 285 3.2 11.3 0.00 0.00 0.00 65 1013.5
20260508110546 10 285 3.2 8.0 0.00 0.00 0.00 65 1013.5
20260508110527 10 285 1.6 6.4 0.00 0.00 0.00 65 1013.4
20260508110104 9 285 0.0 6.4 0.00 0.00 0.00 66 1013.7
20260508105544 9 285 1.6 6.4 0.00 0.00 0.00 66 1013.4
20260508105021 9 285 1.6 6.4 0.00 0.00 0.00 66 1013.4
20260508104533 9 285 0.0 4.8 0.00 0.00 0.00 66 1013.7
20260508104456 9 285 1.6 6.4 0.00 0.00 0.00 66 1013.4
20260508103932 9 285 3.2 11.3 0.00 0.00 0.00 66 1013.5
20260508103431 9 285 3.2 11.3 0.00 0.00 0.00 66 1013.5
20260508103125 9 285 1.6 6.4 0.00 0.00 0.00 66 1013.5
20260508103058 9 285 3.2 6.4 0.00 0.00 0.00 66 1013.8
20260508102340 9 285 1.6 6.4 0.00 0.00 0.00 67 1013.5
20260508101818 9 285 1.6 6.4 0.00 0.00 0.00 67 1013.4
20260508101507 8 285 0.0 6.4 0.00 0.00 0.00 67 1013.8
20260508101317 9 285 3.2 6.4 0.00 0.00 0.00 67 1013.4
20260508100812 9 285 1.6 6.4 0.00 0.00 0.00 67 1013.4
20260508100313 9 285 1.6 4.8 0.00 0.00 0.00 67 1013.3
20260508100027 8 285 1.6 6.4 0.00 0.00 0.00 67 1013.7
20260508095756 9 285 1.6 6.4 0.00 0.00 0.00 66 1013.4
20260508095517 9 285 1.6 4.8 0.00 0.00 0.00 66 1013.4
20260508095217 9 285 1.6 4.8 0.00 0.00 0.00 66 1013.4
20260508094530 8 285 1.6 4.8 0.00 0.00 0.00 66 1013.7
20260508094237 9 285 1.6 4.8 0.00 0.00 0.00 66 1013.5
20260508093717 9 285 1.6 4.8 0.00 0.00 0.00 66 1013.5
20260508093219 8 285 1.6 4.8 0.00 0.00 0.00 67 1013.4
20260508093041 8 285 1.6 4.8 0.00 0.00 0.00 67 1013.8
20260508092649 8 285 1.6 4.8 0.00 0.00 0.00 67 1013.5
20260508092121 8 285 1.6 4.8 0.00 0.00 0.00 67 1013.5
20260508091618 8 285 1.6 4.8 0.00 0.00 0.00 67 1013.4
20260508091503 8 285 0.0 4.8 0.00 0.00 0.00 67 1013.8
20260508091322 8 285 1.6 4.8 0.00 0.00 0.00 67 1013.4
20260508090600 8 285 0.0 3.2 0.00 0.00 0.00 67 1013.6
20260508090100 8 285 0.0 3.2 0.00 0.00 0.00 66 1013.6
20260508090029 8 285 0.0 1.6 0.00 0.00 0.00 66 1014.0
20260508085811 8 285 0.0 3.2 0.00 0.00 0.00 66 1013.5
20260508085043 8 285 1.6 6.4 0.00 0.00 0.00 66 1013.5
20260508084603 8 285 0.0 6.4 0.00 0.00 0.00 66 1013.7
20260508084527 8 285 1.6 6.4 0.00 0.00 0.00 66 1013.3
20260508084008 8 285 0.0 3.2 0.00 0.00 0.00 66 1013.4
20260508083446 8 285 1.6 4.8 0.00 0.00 0.00 66 1013.4
20260508083201 8 285 1.6 4.8 0.00 0.00 0.00 66 1013.3
20260508083030 8 285 1.6 4.8 0.00 0.00 0.00 66 1013.7
20260508082440 8 286 1.6 6.4 0.00 0.00 0.00 67 1013.3
20260508081939 8 285 1.6 6.4 0.00 0.00 0.00 67 1013.3
20260508081509 8 285 0.0 4.8 0.00 0.00 0.00 66 1013.7
20260508081437 8 285 1.6 4.8 0.00 0.00 0.00 67 1013.3
20260508081407 8 285 1.6 4.8 0.00 0.00 0.00 66 1013.4
20260508080619 8 285 3.2 8.0 0.00 0.00 0.00 65 1013.2
20260508075826 8 286 3.2 6.4 0.00 0.00 0.00 65 1013.3
20260508075747 8 286 1.6 6.4 0.00 0.00 0.00 65 1013.3
20260508074757 8 286 1.6 6.4 0.00 0.00 0.00 65 1013.3
20260508074525 8 286 0.0 6.4 0.00 0.00 0.00 65 1013.7
20260508074237 8 286 1.6 6.4 0.00 0.00 0.00 65 1013.4
20260508073711 9 286 1.6 4.8 0.00 0.00 0.00 65 1013.3
20260508073148 8 286 1.6 6.4 0.00 0.00 0.00 64 1013.2
20260508073011 8 286 1.6 6.4 0.00 0.00 0.00 65 1013.6
20260508072618 8 286 1.6 6.4 0.00 0.00 0.00 65 1013.2
20260508072118 8 286 1.6 4.8 0.00 0.00 0.00 65 1013.3
20260508071552 8 286 1.6 4.8 0.00 0.00 0.00 65 1013.3
20260508071533 8 286 1.6 4.8 0.00 0.00 0.00 65 1013.7
20260508071050 9 286 1.6 4.8 0.00 0.00 0.00 64 1013.4
20260508070820 9 286 1.6 4.8 0.00 0.00 0.00 63 1013.4
20260508070027 9 286 3.2 6.4 0.00 0.00 0.00 62 1013.5
20260508070003 9 286 0.0 6.4 0.00 0.00 0.00 62 1013.9
20260508065459 9 286 3.2 8.0 0.00 0.00 0.00 61 1013.5
20260508064955 9 286 3.2 6.4 0.00 0.00 0.00 61 1013.4
20260508064544 9 286 1.6 12.9 0.00 0.00 0.00 61 1013.9
20260508064454 9 285 3.2 12.9 0.00 0.00 0.00 61 1013.5
20260508063926 9 286 3.2 8.0 0.00 0.00 0.00 62 1013.7
20260508063904 9 286 3.2 8.0 0.00 0.00 0.00 63 1013.8
20260508063109 8 286 1.6 6.4 0.00 0.00 0.00 64 1014.3
20260508062921 9 286 1.6 8.0 0.00 0.00 0.00 64 1013.9
20260508062418 9 286 3.2 11.3 0.00 0.00 0.00 64 1013.9
20260508061903 9 286 3.2 11.3 0.00 0.00 0.00 64 1013.9
20260508061622 9 286 3.2 11.3 0.00 0.00 0.00 65 1014.0
20260508061532 9 286 1.6 8.0 0.00 0.00 0.00 66 1014.4
20260508061127 9 286 3.2 11.3 0.00 0.00 0.00 65 1013.9
20260508060558 9 285 3.2 6.4 0.00 0.00 0.00 64 1014.0
20260508060046 9 285 1.6 6.4 0.00 0.00 0.00 64 1014.4
20260508055812 9 286 1.6 6.4 0.00 0.00 0.00 64 1013.9
20260508055245 9 286 1.6 4.8 0.00 0.00 0.00 64 1013.9
20260508054715 9 285 0.0 4.8 0.00 0.00 0.00 65 1013.9
20260508054514 9 285 0.0 4.8 0.00 0.00 0.00 65 1014.4
20260508054436 9 285 0.0 3.2 0.00 0.00 0.00 65 1014.1
20260508053707 9 285 1.6 3.2 0.00 0.00 0.00 65 1014.1
20260508053204 10 285 1.6 4.8 0.00 0.00 0.00 65 1014.1
20260508053027 9 285 1.6 4.8 0.00 0.00 0.00 64 1014.4
20260508052656 10 285 1.6 4.8 0.00 0.00 0.00 64 1014.1
20260508052153 10 285 1.6 8.0 0.00 0.00 0.00 64 1014.0
20260508051651 10 285 3.2 8.0 0.00 0.00 0.00 64 1014.0
20260508051558 9 285 1.6 8.0 0.00 0.00 0.00 64 1014.4
20260508051148 10 285 3.2 6.4 0.00 0.00 0.00 64 1013.9
20260508050848 10 285 3.2 6.4 0.00 0.00 0.00 63 1013.9
20260508050055 10 285 3.2 9.7 0.00 0.00 0.00 63 1013.8
20260508050004 10 285 0.0 9.7 0.00 0.00 0.00 63 1014.2
20260508045814 10 285 3.2 9.7 0.00 0.00 0.00 63 1013.8
20260508045028 10 285 3.2 8.0 0.00 0.00 0.00 63 1013.9
20260508044516 10 285 3.2 8.0 0.00 0.00 0.00 63 1014.3
20260508044458 10 285 3.2 8.0 0.00 0.00 0.00 63 1013.9
20260508043958 10 286 3.2 6.4 0.00 0.00 0.00 63 1013.9
20260508043432 10 285 1.6 4.8 0.00 0.00 0.00 63 1013.8
20260508043122 10 286 1.6 8.0 0.00 0.00 0.00 62 1013.8
20260508043033 10 285 1.6 4.8 0.00 0.00 0.00 62 1014.2
20260508042401 10 286 3.2 8.0 0.00 0.00 0.00 62 1013.8
20260508041831 10 286 1.6 6.4 0.00 0.00 0.00 61 1013.8
20260508041520 10 285 1.6 4.8 0.00 0.00 0.00 61 1014.2
20260508041328 10 285 1.6 4.8 0.00 0.00 0.00 61 1013.8
20260508040805 10 285 1.6 4.8 0.00 0.00 0.00 61 1013.8
20260508040247 10 285 1.6 4.8 0.00 0.00 0.00 61 1013.8
20260508040018 10 285 1.6 4.8 0.00 0.00 0.00 60 1014.2
20260508035748 10 285 3.2 8.0 0.00 0.00 0.00 61 1013.7
20260508035246 10 285 3.2 8.0 0.00 0.00 0.00 61 1013.6
20260508034939 10 285 1.6 6.4 0.00 0.00 0.00 61 1013.7
20260508034516 10 285 1.6 4.8 0.00 0.00 0.00 61 1014.1
20260508034216 10 285 1.6 6.4 0.00 0.00 0.00 61 1013.7
20260508033649 10 286 1.6 6.4 0.00 0.00 0.00 61 1013.7
20260508033146 10 286 1.6 6.4 0.00 0.00 0.00 60 1013.8
20260508033005 10 286 0.0 6.4 0.00 0.00 0.00 60 1014.2
20260508032622 10 286 1.6 4.8 0.00 0.00 0.00 60 1013.8
20260508032052 11 286 1.6 4.8 0.00 0.00 0.00 59 1013.8
20260508031550 11 286 1.6 8.0 0.00 0.00 0.00 58 1013.8
20260508031520 10 286 0.0 8.0 0.00 0.00 0.00 58 1014.2
20260508031023 11 286 3.2 8.0 0.00 0.00 0.00 57 1013.6
20260508030520 11 285 3.2 8.0 0.00 0.00 0.00 56 1013.6
20260508030010 11 285 1.6 6.4 0.00 0.00 0.00 56 1014.0
20260508025951 11 285 3.2 6.4 0.00 0.00 0.00 56 1013.6
20260508025450 11 285 3.2 6.4 0.00 0.00 0.00 55 1013.6
20260508025147 11 286 1.6 4.8 0.00 0.00 0.00 55 1013.7
20260508024527 11 285 1.6 4.8 0.00 0.00 0.00 55 1014.2
20260508024356 11 285 1.6 4.8 0.00 0.00 0.00 54 1013.7
20260508023854 11 286 1.6 4.8 0.00 0.00 0.00 54 1013.8
20260508023326 11 286 1.6 4.8 0.00 0.00 0.00 54 1013.8
20260508023101 11 286 0.0 4.8 0.00 0.00 0.00 53 1014.1
20260508022824 11 286 1.6 4.8 0.00 0.00 0.00 53 1013.7
20260508022321 11 286 1.6 4.8 0.00 0.00 0.00 52 1013.6
20260508021755 12 286 1.6 6.4 0.00 0.00 0.00 51 1013.5
20260508021710 12 286 1.6 6.4 0.00 0.00 0.00 50 1013.6
20260508021519 11 286 1.6 6.4 0.00 0.00 0.00 51 1014.0
20260508020701 12 286 1.6 4.8 0.00 0.00 0.00 50 1013.6
20260508020158 12 286 1.6 6.4 0.00 0.00 0.00 50 1013.5
20260508020047 12 286 1.6 6.4 0.00 0.00 0.00 50 1013.9
20260508015658 12 286 1.6 6.4 0.00 0.00 0.00 50 1013.5
20260508015131 12 287 1.6 6.4 0.00 0.00 0.00 49 1013.6
20260508014632 12 287 1.6 6.4 0.00 0.00 0.00 49 1013.6
20260508014602 12 287 0.0 6.4 0.00 0.00 0.00 49 1014.0
20260508014103 12 287 0.0 3.2 0.00 0.00 0.00 48 1013.5
20260508013602 12 287 0.0 3.2 0.00 0.00 0.00 48 1013.6
20260508013038 12 287 1.6 3.2 0.00 0.00 0.00 48 1013.6
20260508013007 12 287 0.0 3.2 0.00 0.00 0.00 48 1014.0
20260508012512 12 287 1.6 3.2 0.00 0.00 0.00 48 1013.6
20260508012012 12 287 0.0 3.2 0.00 0.00 0.00 47 1013.6
20260508011504 12 287 0.0 3.2 0.00 0.00 0.00 47 1013.9
20260508011446 12 287 1.6 3.2 0.00 0.00 0.00 47 1013.5
20260508010944 12 287 1.6 3.2 0.00 0.00 0.00 46 1013.5
20260508010903 12 288 1.6 3.2 0.00 0.00 0.00 46 1013.6
20260508010344 12 273 1.6 3.2 0.00 0.00 0.00 46 1013.5
20260508010039 12 288 0.0 3.2 0.00 0.00 0.00 46 1013.9
20260508005811 12 273 1.6 3.2 0.00 0.00 0.00 46 1013.5
20260508004828 13 273 1.6 6.4 0.00 0.00 0.00 44 1013.5
20260508004515 12 273 0.0 6.4 0.00 0.00 0.00 44 1013.8
20260508004328 13 273 0.0 6.4 0.00 0.00 0.00 44 1013.4
20260508004023 13 273 0.0 1.6 0.00 0.00 0.00 43 1013.3
20260508003243 13 273 0.0 1.6 0.00 0.00 0.00 42 1013.3
20260508003042 13 273 0.0 1.6 0.00 0.00 0.00 42 1013.7
20260508002740 13 273 0.0 1.6 0.00 0.00 0.00 42 1013.3
20260508002238 13 273 0.0 4.8 0.00 0.00 0.00 42 1013.3
20260508002002 14 273 1.6 4.8 0.00 0.00 0.00 40 1013.2
20260508001559 13 291 0.0 3.2 0.00 0.00 0.00 41 1013.6
20260508001226 14 287 1.6 6.4 0.00 0.00 0.00 41 1013.2
20260508000951 14 287 3.2 6.4 0.00 0.00 0.00 39 1013.3
20260508000208 14 287 3.2 11.3 0.00 0.00 0.00 39 1013.2
20260508000022 14 287 1.6 9.7 0.00 0.00 0.00 41 1013.6
20260507235643 15 287 3.2 11.3 0.00 0.00 0.00 39 1013.2
20260507235144 15 287 3.2 6.4 0.00 0.00 0.00 39 1013.2
20260507234622 15 286 3.2 12.9 0.00 0.00 0.00 39 1013.2
20260507234551 15 286 3.2 6.4 0.00 0.00 0.00 39 1013.5
20260507234106 15 163 3.2 12.9 0.00 0.00 0.00 39 1013.1
20260507233606 15 293 4.8 12.9 0.00 0.00 0.00 41 1013.1
20260507233106 15 164 4.8 12.9 0.00 0.00 0.00 38 1013.1
20260507233048 15 163 4.8 12.9 0.00 0.00 0.00 38 1013.5
20260507232825 15 210 3.2 11.3 0.00 0.00 0.00 39 1013.1
20260507232054 15 200 3.2 9.7 0.00 0.00 0.00 44 1013.1
20260507231553 15 147 1.6 6.4 0.00 0.00 0.00 38 1013.1
20260507231527 15 151 1.6 6.4 0.00 0.00 0.00 38 1013.4
20260507231035 15 127 3.2 9.7 0.00 0.00 0.00 38 1013.0
20260507230741 15 126 4.8 11.3 0.00 0.00 0.00 37 1013.1
20260507230056 15 188 4.8 11.3 0.00 0.00 0.00 38 1013.4
20260507230019 15 187 3.2 11.3 0.00 0.00 0.00 40 1013.1
20260507225523 15 205 3.2 14.5 0.00 0.00 0.00 38 1013.0
20260507225005 16 88 3.2 14.5 0.00 0.00 0.00 38 1013.1
20260507224557 15 205 3.2 9.7 0.00 0.00 0.00 36 1013.3
20260507224508 16 138 3.2 9.7 0.00 0.00 0.00 37 1013.0
20260507223939 16 143 3.2 8.0 0.00 0.00 0.00 42 1013.0
20260507223420 16 157 3.2 8.0 0.00 0.00 0.00 38 1013.0
20260507223059 16 230 1.6 8.0 0.00 0.00 0.00 37 1013.4
20260507222921 16 226 3.2 9.7 0.00 0.00 0.00 36 1013.0
20260507222422 16 207 3.2 4.8 0.00 0.00 0.00 37 1013.1
20260507222341 16 234 3.2 6.4 0.00 0.00 0.00 39 1013.1
20260507221523 15 236 1.6 8.0 0.00 0.00 0.00 38 1013.5
20260507221401 15 211 3.2 11.3 0.00 0.00 0.00 39 1013.2
20260507220902 15 206 4.8 14.5 0.00 0.00 0.00 39 1013.2
20260507220357 15 183 4.8 14.5 0.00 0.00 0.00 36 1013.2
20260507220043 15 278 6.4 14.5 0.00 0.00 0.00 36 1013.6
20260507215900 16 185 4.8 16.1 0.00 0.00 0.00 37 1013.3
20260507215355 15 194 4.8 16.1 0.00 0.00 0.00 41 1013.3
20260507214852 15 136 4.8 12.9 0.00 0.00 0.00 37 1013.3
20260507214530 15 211 1.6 12.9 0.00 0.00 0.00 36 1013.7
20260507214350 16 217 6.4 14.5 0.00 0.00 0.00 35 1013.3
20260507213826 16 190 6.4 14.5 0.00 0.00 0.00 39 1013.3